Theta_e
343 343 343 344 343 346 345 344 343 340 339 338 337 337 338 340 338 345 349 355 352 350 347 346 344 341 336 334 332 329 328 326 325 325 326 326 326 326 325 325 324 325 325
344 342 341 341 341 342 343 343 342 340 338 337 337 338 339 341 339 344 346 350 350 348 348 347 344 341 336 333 330 328 326 324 324 326 327 327 326 326 325 325 325 325 325
345 342 340 339 341 341 341 341 340 339 337 337 336 338 340 343 341 342 342 343 345 347 348 348 344 340 336 333 329 327 325 324 326 327 327 326 325 324 324 325 326 326 325
345 341 339 339 341 341 341 340 339 338 337 337 338 340 343 344 341 339 338 338 340 339 345 347 345 338 335 332 327 325 328 326 326 326 326 325 324 323 324 324 325 326 325
346 343 340 340 341 340 340 339 339 338 338 338 338 341 344 343 342 339 337 336 335 335 336 338 344 339 333 329 326 325 326 327 326 325 324 323 322 322 323 324 323 323 323
345 340 340 339 339 339 338 337 338 338 338 339 340 336 338 337 336 335 336 335 332 331 332 333 333 334 331 328 329 326 326 326 325 323 322 321 321 321 321 321 322 322 322
343 341 338 338 339 337 338 339 337 336 337 338 334 331 329 328 326 326 330 326 323 326 326 328 328 327 328 326 325 324 324 324 323 322 320 319 320 320 321 321 321 321 321
343 341 340 340 340 338 338 337 337 336 336 335 334 327 327 322 317 314 314 316 318 319 319 321 321 318 318 319 320 321 321 321 321 320 319 318 319 319 320 319 320 320 320
343 345 343 342 341 339 336 337 337 336 331 329 330 331 321 323 313 314 312 313 313 314 314 314 314 314 314 314 314 316 318 317 318 318 317 317 317 319 318 318 319 319 319
340 342 342 342 341 339 338 336 338 337 332 327 324 325 322 323 315 308 310 309 310 310 310 311 310 310 311 311 313 314 314 314 316 315 316 316 317 318 317 318 318 318 319
338 340 340 340 339 339 340 338 338 337 333 328 324 319 318 318 317 312 306 305 307 308 307 307 307 308 309 309 310 311 312 313 313 313 313 314 315 315 316 317 317 317 318
336 340 341 340 339 338 337 337 338 337 330 327 324 321 319 318 314 311 306 304 304 305 306 305 305 305 306 307 309 311 310 311 311 311 311 311 312 312 313 315 315 316 317
332 335 339 340 340 337 335 332 330 327 325 322 319 315 315 312 310 307 306 303 303 304 305 303 302 303 304 305 307 310 309 309 310 311 310 309 309 310 310 312 312 313 314
329 335 337 338 337 329 325 323 320 319 317 314 311 311 309 308 308 306 307 304 300 299 301 302 304 302 302 304 307 308 305 308 308 309 309 307 307 308 308 309 310 310 310
331 333 336 336 328 323 321 319 316 314 314 312 309 309 307 306 306 306 305 304 305 298 298 301 300 303 302 303 305 305 305 307 307 308 309 308 307 306 306 307 307 308 308
331 331 333 327 321 319 316 315 312 311 310 309 307 306 306 305 304 305 304 304 302 300 297 299 300 300 301 302 305 304 304 306 306 307 308 307 306 305 305 305 307 306 306
326 323 320 320 319 316 314 312 310 310 308 307 307 305 303 303 302 302 301 302 301 302 299 299 299 300 301 301 302 303 303 303 304 305 305 304 304 304 304 304 305 305 304
320 319 318 316 315 314 312 311 309 309 306 305 304 303 302 303 300 300 300 299 300 301 300 297 298 299 300 301 301 302 302 301 302 303 304 304 303 303 304 303 304 304 302
319 319 316 313 311 310 310 309 308 305 305 304 303 302 301 301 298 299 299 298 298 298 298 298 297 298 299 300 301 302 302 301 301 303 303 303 303 303 303 303 304 303 301
315 313 312 311 309 308 306 305 304 303 303 304 303 302 302 300 299 299 298 298 297 297 297 297 297 297 298 300 300 299 299 301 299 301 303 302 302 302 302 303 303 303 301
309 308 306 305 305 305 305 303 303 303 303 302 302 303 304 305 305 302 298 297 297 296 297 296 295 296 296 297 297 299 298 299 299 300 300 302 301 300 300 301 302 302 301
307 306 304 303 302 302 301 302 302 301 302 302 303 305 304 305 304 303 302 299 298 297 295 296 295 296 297 298 300 297 298 297 295 301 299 300 301 300 299 300 301 300 300
303 302 301 300 299 299 298 299 300 299 299 300 301 302 302 302 301 301 301 301 301 300 298 297 297 297 298 300 298 298 298 295 297 300 299 297 300 299 298 299 301 300 299
301 300 299 298 297 298 298 298 299 298 297 297 300 302 301 299 299 299 299 299 299 300 300 299 298 299 299 300 299 300 298 297 299 299 299 294 299 298 297 299 300 300 299
297 296 296 296 296 296 297 297 298 297 296 298 299 301 301 299 297 297 300 299 299 300 302 301 300 298 296 297 300 302 298 297 296 297 300 296 296 295 296 297 298 300 299
296 296 296 297 298 296 296 296 297 297 297 296 297 297 297 297 294 295 299 299 297 298 299 301 301 300 300 301 300 301 300 296 296 294 300 296 295 295 293 297 297 298 298
Wind_Speed
7 6 6 4 4 5 4 4 4 5 6 6 5 6 7 6 5 4 4 12 11 10 9 9 9 9 8 8 7 6 5 4 3 5 9 11 14 17 18 22 22 22 23
7 6 4 5 5 5 5 5 5 5 5 5 7 5 7 4 5 6 4 5 10 10 10 11 10 9 8 8 6 4 2 1 2 6 10 14 15 18 22 23 25 24 24
6 6 4 4 6 5 6 5 5 4 5 5 7 4 6 4 6 8 5 3 5 9 9 9 10 9 7 7 5 3 1 2 4 9 11 15 19 23 23 24 26 24 24
8 6 5 6 5 4 5 5 4 5 5 4 4 4 3 4 5 5 4 3 3 2 7 9 8 7 6 6 3 1 5 3 8 11 15 19 23 23 24 24 24 23 19
10 8 7 5 5 5 5 5 4 4 4 4 4 2 3 2 2 4 3 5 3 3 4 4 6 4 3 3 1 2 3 7 12 15 18 21 23 22 21 20 21 21 21
10 8 6 7 5 5 5 5 7 4 4 3 2 3 3 3 3 1 3 1 2 2 3 2 2 2 5 5 8 5 7 12 14 17 20 22 21 21 20 20 20 20 21
9 9 6 7 6 6 8 7 4 5 4 3 3 2 4 4 5 5 3 3 4 2 1 3 3 3 7 11 8 8 11 14 16 19 20 20 20 20 19 21 21 22 22
5 7 9 8 10 8 8 6 6 3 3 5 3 1 4 2 5 5 4 3 6 4 6 8 9 8 7 5 9 12 13 15 18 19 19 19 19 19 19 20 21 22 23
7 9 9 9 10 8 7 7 6 8 5 2 2 4 2 3 2 4 7 6 7 6 7 8 9 9 7 6 7 9 14 15 16 16 19 17 18 18 19 21 21 23 23
6 8 9 8 7 7 9 8 5 5 3 4 2 1 3 4 4 4 4 5 7 7 7 6 7 7 8 5 8 12 13 13 14 17 17 17 18 19 20 21 22 22 23
4 6 9 10 8 6 7 8 9 11 10 5 4 4 3 2 4 2 3 2 5 5 5 5 5 6 7 5 5 7 12 12 13 15 15 17 19 20 21 21 22 22 23
3 6 7 7 8 9 9 8 8 7 4 2 3 3 4 4 3 3 2 2 3 2 3 4 5 5 5 4 7 11 12 12 12 13 14 16 19 18 21 21 22 22 22
3 5 6 7 7 8 8 7 6 6 7 7 6 5 4 4 4 2 3 2 2 2 2 3 4 4 3 3 5 10 10 12 13 13 12 15 19 18 20 20 21 22 22
4 4 6 7 5 5 5 7 5 5 9 9 12 8 7 5 4 1 2 3 2 1 1 2 0 4 4 5 7 10 6 11 12 14 10 13 17 18 19 21 21 21 22
2 5 8 6 4 6 8 9 7 9 8 8 10 10 8 5 7 4 3 2 2 3 3 2 2 3 5 5 7 6 5 9 12 14 12 12 15 18 18 19 21 22 22
5 7 5 4 7 7 9 10 9 9 12 8 6 9 9 7 6 3 3 2 1 3 3 1 0 2 4 5 8 7 7 9 10 13 15 16 16 17 18 20 21 23 23
4 4 4 4 7 9 9 10 10 12 14 11 8 9 10 7 6 4 4 2 3 3 3 2 1 2 2 7 8 7 7 6 6 12 13 14 15 16 18 19 22 23 22
5 5 5 7 8 7 10 10 13 11 12 12 12 11 10 5 10 6 5 4 5 4 3 4 1 1 1 6 8 8 7 5 5 9 11 11 12 13 17 19 22 21 21
4 4 6 8 10 10 9 10 10 13 10 9 12 10 9 10 10 5 5 6 6 5 4 3 3 2 1 5 8 7 5 5 4 9 11 12 13 13 18 19 21 21 21
6 6 6 8 7 9 11 11 11 12 12 9 9 9 8 11 10 7 8 8 5 6 6 6 4 4 3 5 4 7 7 5 5 6 12 10 12 13 13 20 21 22 22
7 8 9 9 10 8 6 10 11 10 11 11 10 11 11 14 16 13 6 5 7 6 6 5 4 4 5 5 8 6 6 7 4 3 9 6 6 7 9 11 17 23 23
8 8 9 10 10 9 15 16 10 10 8 11 10 11 11 17 18 19 15 11 7 5 5 3 2 3 3 3 5 5 6 5 4 2 8 5 7 6 7 7 21 22 24
10 11 10 12 13 12 17 15 18 8 7 8 9 8 9 9 13 11 14 15 13 10 7 4 3 2 3 4 5 7 6 3 3 4 8 4 7 6 4 7 21 21 23
11 11 12 12 12 12 17 17 17 9 8 8 6 8 11 9 8 10 8 8 7 5 4 3 1 1 2 4 3 3 4 6 4 1 8 4 9 5 4 5 19 21 22
13 14 13 14 13 11 16 14 11 8 9 10 8 8 9 8 7 7 7 6 5 4 3 2 3 4 5 5 4 4 8 6 4 3 9 5 7 5 2 5 8 21 18
14 13 14 13 16 10 11 10 7 5 10 8 7 10 12 8 9 8 6 5 6 4 5 5 4 5 5 5 8 8 6 8 5 4 8 6 6 5 3 3 6 9 9
Wind_Direction
218 214 210 192 199 210 220 235 245 257 272 285 272 255 267 266 224 202 192 187 190 188 184 177 178 179 176 158 157 150 125 103 55 10 351 346 333 338 326 321 318 314 308
225 209 203 204 213 210 215 224 236 248 259 263 275 260 264 241 202 192 197 193 187 192 194 197 198 194 182 173 169 163 145 83 335 338 325 324 334 326 320 322 313 308 301
218 216 216 213 226 215 214 219 236 245 258 253 259 265 269 238 190 189 188 177 196 207 208 210 210 205 194 183 179 149 228 316 345 320 326 323 330 330 319 313 311 310 308
201 206 214 226 224 214 219 220 223 243 248 248 261 259 262 203 175 178 152 156 224 167 233 219 219 211 200 188 171 157 69 344 318 329 333 331 329 324 322 314 317 321 314
202 205 210 220 218 222 217 225 232 215 237 254 257 237 268 258 207 170 185 181 201 206 228 278 230 192 193 167 143 58 357 332 335 340 337 332 330 322 321 327 325 329 324
203 194 206 213 220 219 233 219 229 207 229 228 258 80 32 49 71 51 189 109 209 209 243 211 54 111 123 86 77 42 359 350 343 341 339 335 327 325 327 329 330 330 326
201 198 205 202 206 224 232 229 222 209 218 189 116 98 62 42 52 51 32 11 59 42 182 118 105 88 86 75 54 34 12 352 345 343 340 332 330 333 334 336 334 332 330
213 209 199 203 203 208 221 204 197 191 203 187 160 113 167 155 61 58 34 50 49 72 75 82 88 76 72 60 35 22 8 353 349 347 340 334 331 328 338 338 334 331 330
218 219 221 210 212 194 199 199 190 183 188 193 200 160 139 198 105 5 53 58 66 75 80 81 78 73 62 52 34 12 -0 355 349 339 338 331 333 334 341 332 331 333 330
226 225 230 226 204 191 190 198 166 210 171 191 118 316 81 111 143 208 57 46 68 71 69 71 69 63 53 46 26 9 352 354 349 344 338 343 336 342 341 335 337 334 335
237 239 237 231 221 215 218 210 194 177 211 164 175 168 106 90 80 112 133 162 75 61 70 67 61 55 44 29 9 7 356 353 350 343 345 347 342 342 340 339 336 334 331
243 237 231 231 229 218 208 201 195 179 169 161 129 110 129 146 139 153 133 109 139 111 74 56 48 46 35 7 2 7 359 343 347 350 349 348 342 342 342 340 338 334 335
246 244 241 232 240 222 200 163 160 142 150 133 128 106 95 96 100 117 123 114 135 137 147 69 48 38 18 357 340 4 356 344 343 348 350 353 346 346 342 338 337 340 340
240 258 253 237 200 140 128 122 120 120 131 126 120 109 111 96 103 36 88 128 115 132 96 4 8 27 8 358 351 3 350 334 342 338 344 352 352 345 341 338 338 341 343
308 298 275 230 148 136 126 116 114 111 104 107 112 111 103 83 75 75 98 113 178 172 192 58 351 357 14 360 341 6 337 319 348 335 335 345 357 349 343 340 338 344 344
321 314 307 108 111 118 125 125 123 118 110 97 88 103 104 95 87 100 79 107 221 126 120 232 32 6 9 2 1 2 349 351 343 339 350 357 350 350 342 341 342 348 347
356 34 59 95 122 124 124 120 118 122 112 106 102 95 81 103 102 80 86 87 88 94 115 116 352 16 18 17 3 2 357 352 355 346 358 1 356 346 347 343 342 352 349
49 84 98 103 107 109 124 129 129 118 115 119 111 106 109 124 87 76 79 83 90 80 113 111 35 352 15 10 355 356 356 350 349 357 356 355 346 347 352 346 357 355 351
89 91 109 112 110 108 105 107 109 111 103 110 109 114 122 106 91 96 101 94 73 75 89 116 101 12 353 1 359 1 354 351 354 359 328 313 322 349 359 354 356 359 357
73 80 82 93 95 105 103 100 109 109 114 114 110 104 111 98 110 134 93 82 97 92 91 92 77 48 34 355 357 0 355 343 317 335 343 315 323 353 354 5 357 5 2
72 77 79 77 85 78 92 109 110 99 108 102 106 106 96 108 102 85 97 102 98 89 83 85 82 67 35 10 13 353 333 328 295 278 336 337 356 15 12 0 5 9 8
73 72 74 77 75 77 58 69 75 94 97 106 96 95 93 83 86 87 89 96 93 110 100 101 82 71 21 358 3 355 338 348 335 66 334 328 5 11 17 356 9 12 12
80 73 70 77 75 67 54 51 65 60 74 80 88 96 90 83 81 91 85 86 87 87 82 107 84 57 347 5 335 346 352 308 263 353 339 313 6 8 356 6 12 14 10
77 77 70 66 70 66 59 57 60 54 52 58 73 96 92 88 88 91 96 93 82 69 74 77 113 313 299 305 264 279 298 297 268 26 355 333 351 4 326 352 14 15 10
74 72 70 66 62 54 50 47 56 61 60 64 59 74 95 96 84 85 92 91 85 52 59 59 23 359 8 337 321 50 34 19 340 357 12 338 357 335 303 2 13 16 10
81 80 79 70 60 48 30 42 54 75 77 64 63 67 66 86 73 64 80 80 72 21 17 21 36 39 38 65 54 56 43 31 12 321 4 338 351 3 330 357 1 13 9